User: anonymous   Login
Location: Unspecified
(0.0000°N, 0.0000°E)
Time: 10:00:34
(UTC+00:00)
Language:

USA 223 - Orbit

View from above orbital plane
View from above orbital plane
View from above satellite
View from above satellite

Ground track
Ground track

The orbit data is extracted from the following two-line orbital elements,

1 37232U 10063A   18250.22353096 0.00000000  00000-0  00000-0 0    06
2 37232   3.1991 162.4244 0039361 120.7568 239.6438  1.00270000    01
Epoch (UTC): 07 September 2018 05:21:53
Eccentricity: 0.0039361
inclination: 3.1991°
perigee height: 35621 km
apogee height: 35952 km
right ascension of ascending node: 162.4244°
argument of perigee: 120.7568°
revolutions per day: 1.00270000
mean anomaly at epoch: 239.6438°
orbit number at epoch: 0

The dashed part of the orbit path shows where the satellite is in the earth's shadow,  

DLR